Location: Cheyres
(46.8153°N, 6.7877°E)
Time: 04:30:14
(UTC+00:00)

Milstar 3 - Pass Details

Date: 11 May 2021
Orbit: 1089 x 5155 km, 28.3° (Epoch: 08 May)

Event Time Altitude Azimuth Distance (km) Brightness Sun altitude
Rises 21:57:44 0° 250° (WSW) 6,352 6.7 -21.9°
Reaches altitude 10° 22:03:29 10° 238° (WSW) 4,644 5.9 -22.2°
Enters shadow 22:10:46 23° 200° (SSW) 2,888 4.5 -22.7°
